Content
SEND FEEDBACK

Daily
Averages
Monthly
Summary
United States of America

DOVER FOXCROFT, MAINE


Home > North America > United States > Maine
Elevation: 476 feet     Latitude: 45 11N     Longitude: 069 15W

WEATHER
 
SELECT A DAY
Number of Records: 174,527;   Date Range: 1/1/95 - 8/28/14
 
SHARE

PRINT THIS DATA

[ ← Previous Day ]
WEATHER ALMANAC - JANUARY 23, 2013
[ Next Day → ]
[ °C ]   °F
Weather ElementAverageHighLow
Temperature-11.9 °F-8 °F (1:56 am)-15 °F (5:56 am)
Dewpoint-22.1 °F-14.1 °F (1:56 am)-23.1 °F (7:56 am)
Humidity61 %75 % (1:56 am)50 % (11:56 am)
Barometer29.93 in29.96 in (9:56 am)29.90 in (1:56 am)
Wind Speed9.5 mph17.3 mph (10:56 am)
Wind Gust29.9 mph (10:56 am)
Weather ElementAverage
Wind DirectionW (268.7 °)

Weather ElementTotal
Precipitation---
Heating Degree Days76.5 (Base 65)
Averaged from 23 records on January 23, 2013
WEATHER CONDITIONS BREAKOUT
WIND DIRECTION BREAKOUT
WEATHER BY HOUR - JANUARY 23, 2013
[ °C ]   °F
Local TimeTemperatureDewpointHumidityBarometerVisibilityWind DirectionWind SpeedGust SpeedPrecipitationEventsConditions
1:56 AM-8.0 °F-14.1 °F75 %29.90 inVariable5.8 mph
2:56 AM-11.0 °F-18.9 °F68 %29.90 inVariable6.9 mph16.1 mph
3:56 AM-11.9 °F-20.0 °F67 %29.90 inNW (310°)9.2 mph21.9 mph
4:56 AM-13.0 °F-20.9 °F68 %29.91 inNW (310°)9.2 mph17.3 mph
5:56 AM-15.0 °F-22.0 °F71 %29.94 inNorth (350°)8.1 mph
6:56 AM-14.1 °F-22.0 °F68 %29.94 inVariable6.9 mph17.3 mph
7:56 AM-14.1 °F-23.1 °F64 %29.94 inNW (310°)11.5 mph27.6 mph
8:56 AM-11.9 °F-23.1 °F58 %29.95 inNW (310°)13.8 mph24.2 mph
9:56 AM-11.0 °F-23.1 °F55 %29.96 inNW (310°)11.5 mph27.6 mph
10:56 AM-9.9 °F-23.1 °F52 %29.94 inNW (310°)17.3 mph29.9 mph
11:56 AM-9.0 °F-23.1 °F50 %29.91 inWNW (300°)9.2 mph23.0 mph
12:56 PM-8.0 °F-22.0 °F50 %29.90 inWNW (290°)9.2 mph21.9 mph
1:56 PM-8.0 °F-22.0 °F50 %29.91 inWNW (300°)9.2 mph17.3 mph
2:56 PM-9.0 °F-23.1 °F50 %29.93 inNW (310°)9.2 mph21.9 mph
3:56 PM-11.0 °F-23.1 °F55 %29.94 inWNW (300°)8.1 mph21.9 mph
4:56 PM-13.0 °F-23.1 °F61 %29.95 inNW (310°)9.2 mph19.6 mph
5:56 PM-13.0 °F-23.1 °F61 %29.95 inNW (310°)9.2 mph18.4 mph
6:56 PM-13.0 °F-23.1 °F61 %29.95 inNW (310°)8.1 mph18.4 mph
7:56 PM-14.1 °F-23.1 °F64 %29.96 inNW (310°)9.2 mph17.3 mph
8:56 PM-14.1 °F-23.1 °F64 %29.94 inWNW (300°)6.9 mph19.6 mph
9:56 PM-14.1 °F-23.1 °F64 %29.94 inNW (310°)11.5 mph25.3 mph
10:56 PM-14.1 °F-23.1 °F64 %29.93 inNW (310°)9.2 mph19.6 mph
11:56 PM-13.0 °F-22.0 °F64 %29.91 inNW (310°)10.4 mph19.6 mph
Hourly data recorded from KGNR, located miles away from Dover Foxcroft, Maine







STORIES FROM OUR PARTNERS